Wind_Speed
15 16 15 15 13 12 11 11 11 12 11 11 11 10 10 11 11 11 11 12 13 14 15 17 17 16 15 15 13 12 11 11 12 14 16 17 18 18 18 18 18 18 18 18 18 18 18 19 19 19 19 19 18 17 17 17 17 16 15 15 15 14 14 14 14 14 14 15 15 16 16 16 16 15 15 14 14 14 14 14 13 13 14 14 14
16 16 15 14 14 13 12 12 12 12 12 12 12 12 13 13 13 13 13 13 14 15 16 17 17 17 15 15 15 14 13 12 12 13 14 16 17 18 18 18 18 18 18 19 19 20 20 20 21 21 20 19 18 18 18 18 17 16 16 16 15 14 13 13 13 13 14 15 15 15 15 16 16 15 15 15 14 14 14 14 14 13 13 14 16
17 17 15 14 15 15 14 14 13 13 14 14 14 14 14 13 13 13 13 14 15 16 17 17 17 16 15 15 15 15 14 13 12 13 13 14 15 16 17 18 19 19 19 20 21 21 22 22 22 21 20 19 19 19 19 19 18 17 17 16 15 15 14 14 13 14 15 15 15 15 16 16 15 15 16 16 15 15 14 15 15 15 15 16 17
17 16 14 14 15 15 14 14 14 14 14 14 14 14 14 14 13 13 14 15 15 16 16 16 16 15 15 15 15 15 14 13 13 14 14 15 16 17 18 19 20 21 22 22 23 23 23 23 23 22 21 20 19 19 20 20 19 19 18 17 16 15 15 15 15 15 17 17 17 17 18 17 16 17 18 17 17 18 18 18 19 20 20 20 21
17 15 13 13 14 14 14 14 14 15 16 15 15 15 15 15 14 14 15 15 16 16 16 16 16 16 15 16 16 15 15 14 15 15 16 16 17 18 19 20 21 22 23 24 24 24 24 24 24 24 23 21 20 20 21 21 20 20 20 18 17 17 18 18 18 18 18 19 19 19 19 19 18 19 20 19 19 21 22 22 24 25 25 25 26
16 15 14 14 14 14 15 15 16 17 17 16 16 16 16 16 15 15 15 15 16 16 16 17 17 17 17 17 17 17 17 17 17 17 17 18 19 20 21 22 23 23 23 24 24 24 25 24 25 25 24 23 22 22 22 23 22 22 22 21 19 19 21 21 21 21 21 21 21 21 21 21 21 21 22 22 23 25 26 27 29 30 29 29 28
15 15 15 15 15 15 16 16 17 17 17 16 16 16 16 16 16 16 16 16 16 17 17 18 19 19 19 19 18 18 18 18 18 19 19 20 21 22 23 25 25 25 24 24 24 25 26 26 26 26 26 25 25 24 24 25 25 25 25 24 22 22 24 24 23 23 24 24 24 24 24 25 25 25 26 27 28 30 30 30 31 32 32 32 31
15 15 15 15 16 16 16 17 16 16 17 17 17 16 16 17 17 17 17 17 17 18 18 19 19 20 21 21 20 20 19 19 20 20 21 22 23 24 25 27 27 27 26 26 25 26 27 27 27 27 27 27 27 27 27 27 28 28 28 28 26 25 25 26 26 26 25 26 27 27 27 28 28 29 29 30 32 33 32 33 34 35 36 37 37
16 16 16 16 17 17 18 18 18 18 19 19 19 18 18 19 19 18 18 18 18 19 19 20 20 21 22 22 23 23 23 22 23 23 24 24 25 25 26 27 27 28 28 28 28 28 28 29 29 29 29 29 29 29 29 29 30 30 30 30 29 27 27 27 28 28 28 29 29 29 29 29 30 31 30 31 33 35 35 35 36 37 39 40 42
17 18 18 19 19 19 20 20 20 21 21 21 21 20 20 20 20 19 19 19 20 20 21 21 22 22 23 24 24 25 25 26 27 27 27 27 26 25 26 26 26 27 29 30 31 32 31 31 31 31 31 31 30 30 29 30 31 31 32 32 31 30 29 29 29 29 30 31 32 31 30 30 31 32 32 33 34 36 37 38 39 40 41 42 44
21 21 22 22 22 22 23 24 24 24 24 23 22 22 22 21 21 21 20 20 21 22 23 23 24 24 26 26 26 27 27 28 29 31 31 31 29 27 27 28 27 27 29 31 32 34 35 34 34 34 33 33 32 32 32 32 31 31 30 29 30 30 31 32 31 31 31 31 31 31 31 32 32 33 35 36 38 40 41 42 43 44 45 46 46
25 25 24 24 25 25 26 26 26 26 26 25 24 24 24 23 23 23 23 23 24 25 25 25 26 26 27 28 29 30 30 31 33 34 36 35 33 32 32 33 32 31 31 31 33 34 36 36 36 36 35 35 35 35 34 32 30 29 30 31 32 31 31 31 31 30 29 29 30 32 33 34 35 37 38 40 41 43 44 45 46 46 47 47 47
28 28 28 28 28 29 28 28 28 29 30 29 27 26 26 26 26 26 26 26 26 27 27 27 28 28 29 29 31 33 33 34 35 36 38 38 37 37 37 37 36 35 34 33 33 35 36 37 38 38 39 39 38 36 34 32 31 31 32 33 33 32 31 31 31 32 32 32 32 33 35 36 37 39 41 42 43 44 44 45 45 45 46 46 47
32 32 32 32 32 32 32 32 32 32 34 34 33 33 32 31 30 30 29 29 29 30 30 30 31 31 31 31 32 34 35 35 34 36 38 39 39 38 39 39 39 38 38 36 37 37 37 38 40 40 42 43 40 37 36 35 35 34 33 33 34 34 34 34 34 34 33 33 33 33 34 36 37 38 40 42 42 43 43 44 45 45 47 48 48
36 37 37 37 37 37 36 36 36 36 37 38 38 39 38 36 36 35 34 34 34 34 34 34 34 34 33 34 34 35 37 37 36 36 37 37 37 37 38 39 40 40 40 40 39 39 39 41 42 42 44 45 44 43 41 38 37 37 36 35 36 37 37 36 34 33 32 33 34 34 35 36 36 37 39 40 42 43 44 45 47 48 48 49 49
39 40 40 41 41 40 40 40 40 40 41 42 43 43 43 43 43 42 40 39 37 37 37 37 38 38 38 38 37 37 39 39 39 38 37 36 36 37 38 38 38 39 40 40 41 41 40 43 44 44 45 46 46 44 42 38 37 37 37 37 38 37 36 34 33 33 33 34 34 35 36 37 38 39 40 41 42 43 44 46 47 48 49 49 50
42 43 43 43 44 43 43 43 43 44 45 46 47 47 47 47 47 45 42 40 39 40 41 42 43 43 41 41 40 40 41 42 42 43 42 40 40 40 41 41 42 43 43 43 43 43 43 43 43 43 43 43 42 40 39 38 38 38 39 39 38 38 36 34 34 35 35 35 36 37 38 39 40 41 41 41 42 44 45 47 49 50 51 52 53
46 47 47 47 47 45 44 44 45 46 47 48 48 48 48 48 46 44 43 42 44 47 49 49 48 46 44 43 43 44 44 43 45 47 47 45 44 44 45 47 47 47 46 45 44 44 44 45 45 44 44 44 44 43 42 41 41 40 40 40 39 38 36 35 35 36 36 36 36 37 38 39 40 40 40 41 43 45 47 49 50 52 53 54 55
50 50 50 49 49 48 46 46 46 47 48 49 49 49 48 47 46 45 45 47 50 53 54 53 51 49 47 46 46 47 47 46 48 49 49 48 48 48 49 50 51 50 48 48 47 46 46 48 47 47 48 49 49 48 46 45 43 42 42 41 40 38 37 36 36 36 35 36 36 37 38 39 40 40 41 43 45 48 50 52 53 54 54 55 57
49 49 50 50 50 50 50 49 50 51 51 51 50 49 49 49 49 50 53 55 57 57 56 55 54 52 51 49 49 50 50 49 50 51 50 49 48 49 50 49 48 47 46 46 45 45 45 46 46 47 49 50 49 49 48 47 45 43 42 42 41 40 38 37 37 36 36 36 37 38 39 40 42 43 44 46 48 50 53 54 54 54 54 54 55
45 46 48 49 50 51 51 52 53 53 53 52 52 52 53 55 56 58 60 61 61 59 58 57 57 56 55 53 53 52 52 52 52 52 51 49 48 48 48 46 44 44 42 41 41 40 41 43 44 46 47 47 47 48 48 47 47 45 44 44 43 41 40 38 37 36 37 37 39 40 41 43 44 44 46 48 50 52 54 54 54 53 52 53 54
51 51 52 53 54 54 54 55 57 57 57 57 58 58 59 61 62 63 64 63 63 62 61 61 60 60 58 58 57 56 55 55 54 52 52 52 52 51 50 49 49 47 43 42 43 41 41 44 45 45 45 46 47 48 48 49 48 47 46 44 43 42 41 39 38 38 39 40 41 42 43 44 45 46 48 50 52 54 55 55 55 54 54 55 57
59 59 59 59 59 58 58 59 60 61 62 62 63 63 63 63 64 64 65 65 65 64 64 63 62 62 62 61 60 59 58 58 57 56 56 57 57 55 52 50 50 48 46 46 45 43 44 47 48 46 46 46 47 48 48 49 49 48 46 45 44 43 41 40 40 40 41 42 42 42 43 44 45 47 50 51 53 54 55 56 56 56 57 58 60
60 61 61 61 61 61 62 62 62 63 64 65 66 66 65 65 65 65 66 66 66 65 65 64 64 63 64 63 62 61 59 58 59 59 59 59 59 57 54 51 49 47 45 44 41 41 45 49 49 48 48 49 48 48 48 48 48 46 45 44 44 43 42 41 42 42 42 42 42 43 44 46 48 49 50 51 52 53 55 56 57 58 59 60 62
61 61 62 62 63 63 63 63 63 64 65 65 66 66 66 67 67 66 66 67 67 67 66 66 65 65 65 64 63 62 59 57 58 60 59 57 57 56 54 51 48 46 45 43 42 44 48 50 50 52 53 52 51 50 50 50 48 46 45 44 43 43 42 42 43 43 43 42 43 45 47 48 49 50 50 51 52 53 54 56 58 60 61 61 61
62 63 63 64 64 64 65 65 65 66 66 66 67 67 68 68 68 68 68 68 69 69 68 68 68 68 67 66 65 64 61 58 57 59 59 58 57 55 53 49 47 45 46 46 47 49 51 51 51 53 54 54 55 56 55 52 48 45 43 42 42 42 42 43 43 43 43 43 45 46 47 48 49 50 50 50 51 53 55 57 59 60 60 58 57
63 64 65 65 66 67 68 69 69 69 70 70 70 71 71 71 71 71 71 71 71 71 71 71 70 69 69 68 67 66 63 59 54 54 57 57 57 57 55 53 50 48 47 48 48 49 48 49 52 56 57 58 60 60 57 52 47 44 42 42 42 41 40 40 41 41 42 44 45 46 46 47 48 49 48 49 51 54 57 57 57 56 55 53 50
65 66 67 68 69 70 70 71 71 72 72 72 72 72 72 71 71 71 71 71 71 71 70 70 69 69 69 68 67 66 64 60 55 53 55 55 55 55 55 54 52 50 48 48 47 47 45 45 49 53 53 54 57 56 50 46 44 42 41 40 38 37 37 38 40 41 42 44 44 45 45 46 47 47 47 49 53 55 56 55 53 51 49 47 46
67 68 68 69 70 70 71 71 71 71 71 71 71 71 71 70 70 70 70 70 70 70 69 68 68 68 67 67 66 66 65 63 59 57 57 56 55 54 53 53 53 51 48 47 48 48 48 46 46 45 42 41 42 42 40 40 40 40 39 38 37 37 38 39 40 41 42 42 43 44 44 45 45 45 47 51 54 54 52 50 48 46 45 44 44
67 68 68 68 69 69 69 69 69 69 69 69 69 68 68 68 68 68 67 68 69 69 69 69 69 70 69 68 67 67 67 66 62 59 58 58 58 57 56 54 53 51 50 51 51 52 52 51 49 47 44 42 41 41 41 42 42 41 40 40 40 40 39 39 39 40 41 42 42 42 42 42 43 45 49 53 53 50 48 45 44 43 43 43 43
64 64 65 65 65 65 65 64 64 64 64 63 63 63 62 62 62 62 62 63 64 65 66 66 67 68 68 67 67 66 67 67 65 63 61 60 60 60 58 56 54 51 50 51 53 54 55 55 53 52 53 52 52 50 48 46 43 41 39 39 40 41 41 41 42 42 41 41 40 39 40 41 43 47 51 52 49 46 43 41 40 41 41 41 42
59 59 59 59 59 58 58 58 58 58 58 58 58 58 58 57 57 58 58 59 60 61 61 62 63 64 64 64 63 63 63 64 63 61 59 57 56 56 56 55 53 50 48 48 50 52 53 54 54 54 55 56 55 53 50 46 44 42 41 41 40 40 41 42 42 41 40 38 37 37 39 42 45 49 51 49 45 42 39 38 38 39 40 41 42
53 53 52 52 51 51 50 50 50 50 50 50 50 50 51 51 51 51 51 53 54 54 54 55 57 59 59 59 59 59 59 60 59 57 54 51 48 49 51 52 52 51 50 50 49 48 47 49 50 51 51 52 53 52 50 47 45 44 43 41 40 38 38 38 37 35 35 34 35 38 40 42 46 49 49 45 40 38 36 35 36 38 39 41 43
47 46 45 44 43 42 42 42 41 41 41 40 40 41 41 41 42 41 42 44 46 47 47 48 49 51 52 51 52 52 53 54 55 56 55 52 46 41 41 43 48 52 54 54 54 51 49 49 48 47 48 48 49 49 48 46 45 44 42 40 39 37 35 34 33 32 33 34 37 38 40 43 46 48 45 40 36 34 33 33 34 37 40 42 43
40 38 37 36 35 34 34 33 33 33 32 32 33 34 35 36 37 37 38 39 41 43 44 43 44 45 46 46 45 45 46 48 50 53 56 58 55 48 39 34 37 44 48 50 52 50 46 42 41 40 41 42 43 43 43 42 40 39 38 37 36 34 33 33 33 33 35 36 37 38 40 44 46 44 40 36 32 30 30 31 33 36 39 42 41
30 29 28 28 28 28 28 27 27 28 29 29 31 33 34 36 38 39 40 42 43 44 45 43 42 43 43 42 41 41 42 43 45 47 53 57 60 60 52 40 36 41 45 45 45 44 40 39 39 38 37 37 38 39 40 38 36 35 35 35 35 34 34 34 35 35 36 37 37 38 41 44 43 41 36 32 29 27 28 29 31 33 37 40 39
25 25 24 24 24 24 24 25 26 27 28 30 31 32 34 37 39 40 42 44 45 46 46 45 44 44 42 40 40 40 40 40 40 43 48 53 57 61 58 47 39 40 43 42 42 41 40 41 42 40 38 37 37 37 37 36 35 33 33 34 35 35 35 36 36 36 36 35 36 39 42 42 40 37 33 28 26 26 27 28 28 30 33 36 35
22 22 21 21 22 22 23 25 26 27 28 29 31 34 36 39 41 42 44 44 44 45 45 45 45 45 43 42 41 39 38 37 36 37 41 47 51 56 57 52 43 36 36 38 40 39 37 38 40 39 38 37 35 33 32 31 30 31 32 33 34 34 35 35 35 35 34 35 38 42 42 40 37 34 29 25 24 24 25 26 26 28 30 31 30
19 18 18 19 20 22 23 24 25 26 28 31 34 37 39 42 44 45 43 41 39 39 40 41 41 41 40 39 39 38 36 34 33 32 33 39 45 51 56 57 50 39 36 41 44 40 37 36 36 34 32 31 30 28 28 27 27 29 31 32 33 34 34 34 34 34 35 38 42 42 39 37 34 30 26 23 22 23 23 24 25 26 27 28 27
16 16 17 18 20 21 23 23 24 26 29 32 36 39 43 45 45 41 37 33 30 30 31 32 33 33 33 32 32 32 32 31 29 28 28 32 38 45 54 60 57 48 43 44 46 43 40 37 33 30 28 28 28 29 29 29 29 30 31 32 32 33 33 33 34 37 40 42 41 39 36 34 31 27 24 22 21 21 22 22 23 24 25 25 25
15 15 16 18 19 21 21 22 24 26 30 34 38 42 44 42 37 31 26 23 22 23 23 21 20 20 23 26 26 26 27 27 27 26 25 27 31 37 47 58 62 59 52 47 44 45 43 37 33 32 31 30 30 31 30 30 30 31 32 33 33 33 34 36 38 41 41 39 37 34 33 31 28 25 23 21 20 20 21 21 22 23 24 24 24
14 15 16 17 18 19 20 21 24 27 31 36 40 41 38 32 25 20 17 17 18 17 15 13 15 19 22 25 26 24 23 23 24 24 24 25 26 29 37 48 58 63 61 54 48 45 41 35 31 32 32 31 32 32 30 30 31 32 33 34 35 36 38 40 41 40 37 34 32 32 31 29 26 24 22 21 20 20 20 21 21 22 22 22 22
15 15 16 17 18 18 20 22 24 27 31 35 37 35 29 22 16 14 14 15 15 14 12 13 18 23 26 26 25 23 22 22 23 23 23 23 23 23 27 34 44 54 61 61 56 52 47 41 34 30 27 26 28 29 28 30 32 33 35 36 37 38 39 39 38 36 33 31 30 29 28 27 25 24 22 20 20 19 20 20 20 20 21 21 21
14 14 15 17 17 18 19 21 22 25 29 33 33 29 23 17 13 12 12 12 11 11 13 15 19 24 27 27 26 25 24 22 22 21 21 21 21 23 24 24 27 35 45 52 55 56 56 52 45 38 34 32 31 31 32 34 35 35 35 35 36 37 37 36 34 32 31 29 28 28 27 26 25 24 22 20 20 19 19 19 19 19 20 20 20
12 14 15 16 16 17 18 19 19 22 27 29 29 27 22 16 12 10 9 9 8 10 13 16 18 20 22 23 24 24 23 21 20 19 18 17 19 24 27 26 24 25 29 35 40 44 47 47 44 43 44 44 41 40 39 38 36 34 33 32 34 34 33 32 31 30 29 28 27 27 27 26 26 24 22 21 20 19 18 17 17 18 19 20 20
11 13 14 14 14 14 15 16 17 20 24 26 26 26 24 18 12 10 9 8 8 10 12 15 17 17 17 18 19 19 20 19 17 16 14 13 15 20 26 29 29 28 29 30 30 30 30 31 30 30 33 36 37 37 35 33 32 31 31 32 33 33 31 30 30 28 27 27 27 27 27 27 26 24 22 21 20 19 18 17 17 17 18 19 19
11 12 13 14 14 14 14 15 16 18 21 22 22 23 24 22 16 10 9 10 10 10 11 13 14 14 14 14 14 15 15 15 14 13 13 13 13 15 19 24 28 30 30 29 25 23 23 25 25 24 25 26 27 28 28 27 28 28 30 32 33 32 31 30 29 28 27 27 27 27 27 27 26 25 23 21 21 20 19 18 17 17 17 18 19
11 12 13 14 15 16 16 16 16 17 19 20 20 19 21 23 22 15 8 10 11 10 11 11 12 12 11 11 11 12 12 12 12 11 10 10 11 14 18 21 23 25 27 28 27 27 26 25 25 24 24 24 25 25 25 26 26 28 29 31 32 32 31 30 28 27 27 27 27 27 27 27 26 25 24 22 21 21 20 19 17 17 17 18 18
12 13 13 14 15 16 17 17 17 17 17 18 19 19 18 21 23 21 12 7 8 9 10 11 11 10 9 9 9 9 10 10 11 9 7 5 8 14 18 20 20 22 24 26 28 29 28 27 26 25 25 25 26 26 27 27 28 29 31 31 32 32 31 28 27 27 27 27 26 26 26 26 26 26 24 23 22 22 21 19 17 17 17 17 17
12 12 13 13 14 15 17 18 18 18 17 17 17 18 18 19 21 22 17 7 3 6 7 9 10 10 9 10 8 6 7 10 11 9 7 7 8 11 15 19 22 24 26 27 27 27 27 28 30 30 29 28 27 27 28 29 30 31 31 32 32 31 28 26 26 26 26 26 25 25 25 25 26 26 25 24 23 22 21 20 18 17 18 17 17
11 11 12 13 13 14 15 17 18 18 17 16 16 16 17 17 18 21 20 12 3 2 3 6 9 9 9 9 7 4 5 9 9 6 5 6 6 6 9 12 15 17 19 22 24 25 25 26 27 27 27 26 26 26 27 28 29 29 29 30 29 27 25 25 25 25 24 24 24 24 24 25 25 25 25 24 24 23 22 20 18 18 18 18 17
Wind_Direction
272 275 274 269 265 262 256 243 233 235 240 245 249 254 260 266 273 277 281 285 287 291 294 296 299 300 297 294 287 279 275 274 272 270 269 269 270 271 272 273 273 273 273 273 273 272 271 271 271 272 273 274 275 275 276 277 277 278 277 276 275 276 279 281 282 283 283 280 279 278 278 278 277 278 279 280 282 284 286 288 290 294 298 300 300
272 275 269 261 257 253 248 244 242 243 247 251 254 258 262 266 271 277 284 287 289 291 292 293 294 295 296 293 285 277 272 269 268 268 268 268 269 269 269 270 271 272 274 275 275 275 275 274 274 274 273 274 274 274 275 275 276 275 273 271 272 274 276 276 277 278 278 276 276 277 277 276 276 278 279 279 278 278 280 283 285 288 291 293 295
271 271 261 252 250 249 249 249 250 252 254 256 257 258 261 263 266 272 278 283 286 289 292 293 293 291 289 286 282 278 274 270 268 267 267 269 272 273 274 276 277 277 278 278 279 278 277 275 274 272 272 272 272 272 272 273 273 272 270 271 272 274 276 277 278 278 279 279 280 279 278 276 275 276 276 276 276 274 273 276 280 282 284 284 284
268 259 246 243 246 247 248 251 253 254 254 254 256 259 262 264 266 270 274 277 280 283 286 289 290 289 286 282 281 279 277 277 277 277 278 278 277 278 278 279 280 280 281 280 279 279 279 278 276 274 272 271 271 272 272 271 270 270 271 272 275 278 281 282 282 280 279 280 280 278 276 276 276 275 273 273 274 274 275 277 279 280 282 283 283
261 245 238 244 244 241 243 248 251 252 252 252 254 257 259 261 264 269 272 274 276 279 280 282 283 283 283 282 280 277 276 277 279 283 285 285 284 283 281 280 278 278 278 278 277 276 276 277 277 276 274 271 270 270 270 270 270 271 271 272 276 279 280 281 281 279 278 279 281 280 277 275 273 271 272 272 273 275 278 280 281 282 283 283 284
246 238 242 244 237 238 245 248 249 250 250 251 255 257 255 254 258 262 264 268 271 273 274 276 277 278 279 278 277 275 274 275 278 282 285 286 288 288 286 283 279 277 276 275 275 274 273 274 274 274 273 271 268 267 267 268 269 269 270 270 270 271 273 274 274 275 277 278 279 280 279 278 276 273 274 275 276 279 282 284 284 285 285 285 285
236 238 245 241 236 244 250 249 250 251 250 253 258 258 252 254 259 260 261 263 264 265 268 271 273 274 275 276 275 274 273 273 277 283 287 289 289 289 287 284 282 279 276 274 273 273 273 272 272 272 271 271 269 267 266 267 269 269 270 270 268 266 269 271 272 275 278 280 279 277 276 276 276 277 279 282 282 283 287 290 290 290 291 291 290
241 246 248 243 243 249 250 248 251 252 250 254 259 258 255 258 262 261 261 262 262 263 265 266 268 270 273 274 275 274 273 272 276 281 286 288 289 287 285 282 281 279 277 275 273 272 272 271 271 270 270 270 270 270 268 268 269 269 269 269 268 266 267 270 274 276 279 281 282 280 278 277 276 276 278 281 283 283 286 288 289 291 292 292 292
253 254 252 248 250 252 249 249 254 254 252 254 257 256 256 258 259 259 261 262 262 264 265 266 267 269 270 272 273 274 274 275 277 281 284 286 287 286 283 279 278 277 276 275 273 272 272 271 271 270 270 269 270 271 271 270 270 270 269 268 268 268 268 271 273 275 280 284 285 284 284 283 282 282 281 281 282 283 284 285 286 288 289 290 291
259 256 254 253 254 254 254 254 256 257 258 259 259 259 259 259 260 261 263 266 268 270 271 271 271 273 275 274 273 274 275 277 279 280 281 282 283 283 280 278 277 277 275 274 274 274 274 273 272 270 268 268 269 271 273 273 273 273 271 268 268 269 270 270 271 274 280 284 285 285 285 284 284 285 286 285 284 284 284 284 284 285 285 287 288
257 254 253 254 255 256 257 258 258 259 260 260 261 262 262 262 265 267 270 273 274 275 276 277 276 276 279 278 276 276 276 277 278 278 278 278 277 277 276 276 277 278 277 275 274 274 275 275 274 271 269 267 267 269 273 274 274 275 273 269 269 270 271 271 273 275 279 281 282 283 283 283 283 284 284 284 285 285 285 285 284 284 284 284 285
261 260 257 256 257 258 259 261 263 265 265 264 264 264 265 266 269 272 274 276 277 277 278 279 278 278 280 282 282 280 278 277 277 276 276 276 275 273 273 273 275 276 277 277 276 276 276 275 273 271 270 268 266 266 269 271 271 271 272 273 273 272 271 271 273 275 277 279 280 282 283 283 285 286 285 284 284 285 285 285 285 286 286 286 286
267 265 263 263 263 263 265 266 268 269 271 272 272 271 272 273 273 272 272 273 275 277 278 278 278 279 282 284 286 285 281 278 276 275 275 275 275 274 273 272 273 273 273 274 275 276 277 276 273 269 268 268 267 265 266 269 270 269 270 272 272 270 268 270 273 276 278 277 277 279 280 282 285 286 286 286 285 285 285 286 287 288 288 288 288
266 265 266 266 266 267 268 269 269 270 272 273 275 275 275 275 275 274 273 273 273 275 277 278 278 280 282 284 286 287 285 281 278 277 276 276 276 275 273 272 272 273 273 272 272 273 276 276 275 272 270 269 267 265 266 269 271 270 270 271 270 270 271 273 275 277 277 277 277 277 278 280 282 284 284 286 286 286 287 287 287 288 288 288 288
265 265 265 266 266 268 268 269 270 270 271 272 274 275 273 272 273 274 274 274 274 275 276 278 280 282 283 283 284 285 285 284 282 280 278 279 280 278 276 275 275 276 276 275 274 273 274 274 273 272 272 270 267 266 267 269 271 271 272 271 272 273 274 275 275 275 276 277 278 279 278 280 282 283 284 285 286 286 287 287 288 288 288 288 288
262 263 263 264 265 266 267 268 268 268 269 271 273 273 270 270 271 272 272 271 273 274 276 278 281 282 283 283 282 282 282 282 282 280 279 280 280 279 279 279 278 279 279 280 278 275 274 274 274 273 272 270 268 268 269 271 273 274 274 274 273 273 273 273 274 275 277 279 281 283 283 285 287 288 287 288 288 289 290 290 290 291 291 291 291
258 258 260 261 262 264 266 268 268 269 270 270 271 272 271 271 272 271 269 268 271 275 277 279 280 280 280 281 280 280 280 280 280 279 279 278 276 275 278 278 277 279 281 282 281 277 274 274 275 275 273 270 269 271 274 277 278 277 275 274 272 270 270 271 274 277 280 282 284 286 288 290 290 290 290 291 292 293 293 293 293 293 292 292 291
254 256 258 260 262 264 266 268 269 269 269 270 270 271 271 271 270 268 266 268 273 278 280 280 278 277 276 277 277 277 277 277 276 276 277 278 277 276 278 279 279 279 280 279 278 277 276 274 273 274 274 273 274 276 278 280 281 278 274 271 268 267 268 271 274 278 280 281 283 286 289 289 289 289 291 294 296 297 297 296 294 293 293 292 292
253 255 257 258 260 262 263 263 264 264 266 267 268 269 269 268 267 266 266 270 276 280 281 280 278 275 275 275 275 276 276 276 275 274 275 276 276 277 279 280 279 279 278 277 276 276 275 274 274 274 273 273 275 276 276 278 278 275 270 267 265 265 268 271 274 276 276 279 282 285 286 287 287 290 293 296 300 302 303 301 298 297 296 295 295
253 253 254 254 256 258 258 258 259 259 261 263 264 266 267 267 267 268 270 274 277 278 278 277 276 276 275 275 274 275 276 276 275 276 276 275 276 277 278 279 278 277 277 278 278 276 274 274 275 275 274 274 274 274 275 275 274 269 265 263 261 263 267 270 272 273 275 278 281 283 285 286 288 291 295 299 303 305 304 302 300 298 296 295 294
251 251 250 250 250 252 252 253 255 256 257 259 262 266 268 269 271 272 274 275 276 275 275 275 275 275 275 274 274 274 276 276 277 277 276 276 276 277 277 276 275 275 276 278 280 278 275 275 275 274 273 272 272 272 273 273 270 265 260 258 259 262 264 265 267 271 273 275 278 281 283 285 288 291 295 299 302 303 303 301 298 295 294 293 293
255 254 254 254 254 255 256 256 257 258 260 263 266 269 270 271 272 272 273 273 273 273 274 274 274 275 274 274 273 273 274 276 277 276 274 275 277 276 276 275 274 274 274 273 274 276 275 275 273 271 271 271 269 269 270 269 266 262 256 256 259 262 262 263 266 270 272 275 279 281 282 285 289 294 298 301 303 303 302 301 299 296 296 296 295
262 263 264 264 264 265 266 266 265 265 266 267 269 269 270 270 270 271 271 271 272 272 273 273 273 274 274 274 273 273 273 274 274 274 274 276 277 276 275 273 272 272 270 269 269 270 269 269 268 268 271 272 269 267 266 265 263 259 255 256 260 262 262 265 269 271 273 276 279 281 284 289 294 298 301 303 303 302 302 301 299 298 299 299 298
267 268 269 269 270 270 270 270 269 269 269 269 269 270 270 270 270 271 271 272 272 272 272 272 273 273 273 273 272 272 271 271 272 273 273 274 275 275 274 272 269 268 266 266 266 265 264 265 266 268 272 273 269 265 264 262 260 256 255 257 259 260 262 267 271 274 275 278 282 285 289 293 296 299 301 301 301 300 300 299 299 299 300 299 299
269 269 269 270 270 270 270 271 271 271 271 271 271 272 272 272 272 272 272 272 273 273 272 272 272 271 271 271 271 271 269 269 270 271 271 271 272 273 273 271 268 264 261 259 259 259 260 263 266 268 270 269 267 264 261 260 258 255 253 255 257 258 263 271 275 277 278 281 285 288 291 294 297 299 300 299 299 299 299 299 300 300 300 299 298
269 270 270 271 271 272 272 272 272 272 272 272 272 272 272 272 272 272 272 272 272 272 272 272 271 271 271 270 270 270 269 268 268 269 270 270 271 272 272 270 266 262 259 256 255 255 257 260 263 265 266 266 265 264 261 257 255 252 250 253 256 259 266 272 275 276 280 283 286 289 292 295 297 298 298 298 298 299 300 300 300 300 299 299 298
270 270 271 272 272 273 273 273 273 273 273 273 273 273 272 272 272 272 272 272 271 271 271 271 271 271 271 271 270 270 270 269 267 267 267 268 269 269 269 268 265 262 258 255 254 254 259 265 266 265 265 265 263 261 257 253 250 248 250 254 256 260 266 271 273 277 282 286 289 291 293 295 296 296 297 297 299 300 301 301 301 300 299 299 299
270 271 271 272 272 272 272 273 273 273 273 273 272 272 272 272 272 272 271 271 271 270 270 270 269 269 269 269 270 269 269 267 264 262 263 264 264 265 265 264 264 262 257 255 253 251 254 261 264 261 259 258 256 254 252 250 248 249 253 256 259 263 269 274 278 282 286 288 290 292 293 295 295 295 297 299 302 303 303 302 301 300 300 300 300
271 271 272 272 272 272 272 272 272 272 272 272 272 272 272 272 272 271 271 271 271 270 270 269 268 267 267 267 267 267 266 265 262 260 259 260 260 261 262 262 262 260 256 254 252 249 248 252 254 252 248 248 249 248 248 250 254 258 262 265 268 272 277 279 282 285 287 288 290 291 292 294 294 295 299 304 305 305 303 302 301 300 300 300 300
272 273 273 273 273 273 273 273 273 273 273 273 272 272 272 272 271 271 270 269 268 268 267 266 266 266 265 265 264 264 264 264 263 260 258 258 258 258 260 260 260 259 257 254 253 251 250 250 251 248 245 246 251 255 258 262 267 271 273 275 276 278 280 281 282 284 285 287 288 289 290 293 294 299 304 308 307 305 303 302 301 301 301 301 301
273 273 274 274 274 274 274 274 273 273 272 272 271 271 270 269 269 268 267 266 265 264 264 263 263 263 263 262 262 261 261 261 261 260 258 257 257 258 259 258 257 257 258 257 256 254 253 253 254 253 252 255 261 265 268 270 272 272 273 274 276 278 281 282 283 284 286 287 287 289 291 294 298 303 308 308 306 303 302 302 302 301 301 302 303
274 274 274 274 275 274 274 274 273 273 272 271 271 270 269 267 267 267 267 265 264 263 263 263 262 261 260 259 259 258 257 257 258 258 258 257 256 257 257 257 257 257 256 257 257 256 255 254 255 256 257 260 264 267 270 271 270 269 269 270 273 276 278 280 282 284 286 287 287 290 294 296 300 306 309 307 303 302 301 301 301 301 302 303 305
275 275 276 276 276 277 277 276 276 275 274 274 273 273 272 271 269 269 269 269 268 266 265 264 263 262 260 258 257 256 255 254 253 252 251 251 251 253 255 255 255 254 252 252 253 256 257 258 259 259 260 261 263 265 268 269 270 270 270 270 272 273 274 275 279 282 284 285 288 291 294 297 302 307 308 304 301 301 300 300 300 302 304 306 309
278 278 279 279 279 279 279 279 279 278 278 278 278 277 277 276 275 273 272 271 271 269 267 265 264 263 262 260 257 255 254 252 249 245 242 240 242 249 255 254 253 253 252 251 252 257 261 262 261 260 260 260 262 264 266 268 270 271 272 272 273 272 271 273 278 282 284 286 288 291 294 299 305 307 305 301 299 299 297 298 302 305 307 311 315
280 280 280 281 281 281 281 281 280 279 279 279 280 281 281 281 281 279 276 273 272 271 269 267 265 263 261 260 259 258 256 254 250 245 239 235 235 238 243 248 251 253 254 256 258 259 258 257 257 258 258 259 261 263 265 267 268 270 270 271 271 270 271 274 279 282 284 285 287 290 296 302 305 304 301 298 296 295 295 299 304 308 312 317 320
281 281 282 282 283 283 282 280 279 280 282 283 284 285 285 284 283 282 279 275 272 270 268 267 265 263 262 260 259 258 258 257 254 248 241 235 232 231 233 238 247 249 247 247 250 250 250 252 255 257 258 260 262 263 264 265 266 267 267 268 268 270 273 276 279 281 282 283 286 292 299 303 303 300 297 295 291 290 295 300 306 312 317 320 321
282 282 282 282 282 281 281 281 283 284 286 286 286 287 288 288 287 285 281 277 272 268 266 264 261 260 259 258 257 257 257 258 257 252 244 236 231 228 227 229 237 240 237 236 240 247 254 259 260 259 260 261 262 264 266 267 268 269 267 267 269 271 273 274 276 278 279 281 287 296 301 302 299 296 293 289 285 289 296 302 308 315 319 321 321
283 282 281 281 282 283 284 285 285 285 284 285 287 289 291 292 292 290 286 280 274 269 264 261 258 257 256 256 255 255 256 257 258 255 247 238 231 226 222 220 222 227 231 235 240 247 253 257 258 261 261 259 258 260 262 264 266 266 266 267 269 270 270 272 273 274 277 283 291 298 300 297 294 292 287 281 281 289 296 303 309 315 318 322 326
285 284 284 285 285 285 285 284 284 284 286 288 291 293 294 295 295 292 288 282 276 270 265 261 257 254 253 251 251 251 252 253 253 251 246 239 232 225 220 216 216 220 228 235 238 240 242 248 253 256 255 251 249 251 253 255 258 260 262 265 267 268 269 271 272 274 279 287 294 297 295 292 290 286 278 274 279 289 297 303 309 313 317 322 328
286 286 288 289 288 287 286 286 287 290 292 295 297 299 300 299 297 293 287 280 275 273 269 263 256 250 246 244 244 244 246 247 248 247 246 242 235 227 220 217 217 220 225 230 234 236 237 241 245 246 244 244 245 244 246 250 254 257 259 262 265 268 270 270 273 279 285 291 293 292 289 287 284 277 269 269 278 288 296 303 308 312 315 318 324
286 288 291 292 292 291 291 292 295 299 302 304 306 307 306 302 297 291 283 276 274 276 274 261 245 236 235 236 236 238 240 243 247 249 250 247 242 234 225 220 221 224 226 225 227 231 233 236 241 244 243 244 246 246 249 254 256 258 260 263 266 269 272 275 280 286 289 290 288 285 284 282 277 267 262 267 277 286 294 302 307 310 313 315 320
289 292 296 297 297 297 298 301 305 308 311 313 314 314 310 304 295 287 279 273 272 274 269 242 214 212 221 228 231 235 239 244 249 253 254 253 250 243 233 226 224 227 228 226 225 228 230 231 236 242 241 241 243 247 251 256 259 262 266 269 272 275 279 283 287 289 287 285 281 279 279 276 267 258 257 265 275 284 292 299 304 308 311 313 316
291 295 299 301 302 304 307 309 311 313 317 320 323 323 317 307 294 281 273 273 270 262 244 221 214 217 222 225 230 235 242 250 256 259 261 259 252 241 235 232 230 230 231 230 230 231 231 228 226 230 233 235 238 244 251 258 264 268 273 277 280 282 284 286 287 285 281 278 276 274 273 268 257 251 255 264 273 281 289 296 301 307 310 312 315
299 301 304 306 308 309 311 311 313 319 325 330 336 337 329 314 298 283 273 270 265 245 225 220 226 229 228 229 234 240 248 256 261 262 264 261 245 225 219 226 233 236 236 236 238 240 240 236 233 234 238 241 243 249 258 265 270 273 277 280 281 282 282 281 281 279 276 273 271 270 266 258 249 247 253 262 270 278 286 293 301 307 310 312 315
318 316 314 313 313 313 313 314 319 329 335 341 348 352 347 331 312 298 282 265 249 235 226 228 233 237 235 234 238 244 249 255 259 261 262 255 236 218 211 213 220 227 232 235 238 242 244 244 246 248 250 251 253 256 261 265 267 270 273 276 277 277 276 276 277 276 272 267 266 263 258 249 244 245 252 259 266 274 282 290 299 307 311 313 315
337 331 327 326 324 321 320 322 329 338 344 349 355 1 1 354 333 306 287 267 252 246 244 242 241 242 241 240 241 245 247 251 257 259 249 232 219 215 216 217 220 222 224 227 233 240 245 250 253 253 250 250 252 254 256 258 260 263 267 271 272 273 274 275 275 273 266 261 258 256 250 244 242 245 250 256 263 271 278 286 296 305 311 314 317
344 340 341 345 345 340 335 334 337 344 351 354 357 1 4 5 356 325 280 260 254 250 248 247 245 243 244 246 246 243 243 247 249 241 222 212 213 217 219 221 225 229 232 235 238 242 245 247 247 243 239 240 244 247 249 252 256 259 264 267 270 273 275 275 273 267 260 254 251 249 246 242 242 244 248 254 261 267 274 282 292 301 310 315 318
339 339 344 351 355 354 351 346 343 346 352 357 358 357 360 4 5 355 307 263 251 245 241 239 237 235 238 241 238 234 234 236 231 220 214 219 222 217 215 218 224 228 232 234 234 233 234 234 233 232 234 237 241 245 249 253 257 260 264 267 271 274 276 273 267 260 252 247 246 246 245 243 243 245 248 252 258 264 272 279 287 297 307 313 318
331 335 340 347 353 358 359 356 353 351 351 354 358 359 358 1 6 6 352 295 252 242 237 230 222 218 217 214 213 218 219 211 204 200 200 200 200 204 210 217 222 224 226 227 226 227 228 227 229 235 242 247 249 252 255 259 262 265 267 269 273 276 273 264 255 248 244 243 244 246 245 245 245 246 248 252 257 262 269 275 284 293 302 310 316
326 331 337 343 348 355 360 1 1 359 355 354 357 1 1 1 5 10 11 3 252 231 230 218 205 197 194 195 199 208 206 196 189 183 175 172 181 197 207 215 220 225 229 232 233 235 237 238 241 247 253 255 256 257 260 262 264 265 267 271 274 271 260 247 239 239 240 242 244 247 247 247 248 248 249 253 257 261 267 273 281 289 297 305 313
324 329 334 339 343 349 355 360 3 4 3 360 357 359 3 5 6 10 16 23 45 172 188 189 185 178 176 182 187 183 181 188 193 194 187 186 190 197 204 211 218 224 229 232 234 237 239 241 243 245 247 249 252 255 257 259 262 264 268 270 266 254 240 232 233 237 240 242 246 249 250 250 250 250 251 254 256 260 265 271 277 284 291 300 308
Height
5750 5751 5751 5752 5752 5753 5754 5755 5756 5756 5757 5758 5758 5759 5760 5760 5761 5761 5762 5762 5762 5762 5762 5762 5762 5761 5761 5761 5760 5760 5761 5761 5761 5761 5762 5762 5763 5763 5763 5763 5764 5764 5764 5765 5765 5765 5765 5766 5766 5766 5766 5766 5766 5766 5766 5767 5767 5767 5767 5767 5767 5767 5767 5767 5767 5767 5767 5767 5766 5766 5766 5766 5766 5766 5766 5766 5766 5766 5765 5765 5765 5765 5765 5764 5764
5748 5748 5749 5749 5750 5751 5752 5753 5754 5754 5755 5756 5756 5757 5758 5758 5759 5759 5759 5760 5760 5760 5760 5760 5760 5759 5759 5759 5758 5758 5758 5758 5759 5759 5760 5760 5760 5761 5761 5761 5761 5762 5762 5763 5763 5764 5764 5764 5764 5764 5764 5764 5764 5764 5764 5765 5765 5765 5765 5765 5764 5764 5764 5764 5765 5765 5765 5764 5764 5764 5764 5764 5764 5764 5764 5764 5764 5764 5764 5763 5763 5763 5763 5763 5762
5745 5746 5747 5747 5748 5749 5750 5751 5752 5752 5753 5754 5754 5755 5756 5756 5757 5757 5757 5758 5758 5758 5758 5758 5758 5757 5757 5757 5757 5757 5757 5757 5757 5757 5758 5758 5758 5758 5759 5759 5759 5760 5760 5761 5761 5761 5761 5762 5762 5761 5761 5761 5761 5761 5762 5762 5763 5763 5763 5763 5763 5762 5762 5762 5763 5763 5762 5762 5762 5762 5762 5762 5763 5763 5763 5762 5762 5762 5762 5762 5762 5761 5761 5761 5761
5741 5743 5744 5745 5745 5746 5748 5748 5749 5750 5751 5751 5752 5753 5753 5754 5755 5755 5756 5756 5756 5756 5756 5756 5756 5756 5756 5756 5756 5756 5755 5756 5756 5756 5756 5756 5756 5756 5756 5756 5757 5757 5758 5758 5758 5759 5759 5759 5759 5759 5759 5759 5759 5759 5759 5760 5761 5761 5761 5761 5760 5760 5760 5760 5760 5761 5760 5760 5760 5760 5760 5760 5761 5761 5760 5761 5761 5760 5760 5760 5759 5759 5759 5759 5759
5738 5740 5741 5742 5743 5744 5745 5746 5747 5748 5748 5749 5750 5750 5751 5752 5752 5753 5753 5754 5754 5754 5754 5754 5754 5754 5754 5754 5754 5754 5754 5754 5754 5754 5754 5754 5754 5754 5754 5754 5754 5754 5755 5755 5755 5756 5756 5756 5756 5756 5757 5757 5757 5757 5757 5758 5758 5758 5758 5758 5758 5758 5757 5757 5758 5758 5758 5758 5758 5758 5758 5758 5759 5759 5758 5759 5759 5758 5758 5758 5757 5756 5757 5756 5756
5735 5737 5738 5739 5740 5741 5742 5743 5744 5745 5745 5746 5747 5748 5749 5749 5750 5750 5751 5751 5752 5752 5752 5753 5753 5753 5753 5753 5753 5752 5752 5752 5752 5752 5752 5752 5752 5752 5752 5751 5751 5752 5752 5752 5753 5753 5753 5754 5754 5754 5754 5755 5755 5755 5755 5755 5756 5756 5755 5755 5756 5756 5755 5755 5755 5755 5756 5756 5756 5756 5756 5756 5756 5756 5756 5756 5756 5755 5755 5755 5754 5753 5753 5753 5753
5732 5734 5735 5737 5737 5738 5739 5740 5741 5741 5742 5743 5744 5745 5746 5746 5747 5748 5748 5749 5750 5750 5750 5750 5750 5751 5751 5751 5751 5751 5751 5751 5751 5750 5750 5750 5750 5750 5749 5749 5748 5749 5749 5749 5750 5750 5750 5751 5751 5752 5752 5752 5753 5753 5753 5753 5753 5753 5752 5752 5754 5754 5753 5752 5753 5753 5753 5753 5753 5753 5753 5753 5753 5753 5753 5753 5752 5752 5752 5751 5750 5750 5749 5749 5749
5730 5731 5733 5734 5735 5736 5737 5737 5738 5738 5739 5740 5741 5742 5743 5744 5745 5745 5746 5746 5747 5747 5748 5748 5748 5748 5748 5748 5749 5749 5749 5749 5749 5748 5748 5748 5748 5747 5747 5746 5746 5746 5746 5747 5747 5747 5747 5748 5748 5749 5749 5749 5749 5749 5750 5750 5750 5750 5749 5749 5750 5750 5750 5749 5749 5749 5749 5749 5749 5749 5749 5750 5750 5750 5750 5750 5748 5748 5749 5748 5747 5746 5745 5744 5744
5727 5729 5730 5731 5732 5733 5734 5734 5735 5735 5736 5737 5738 5739 5740 5741 5742 5743 5743 5744 5744 5745 5745 5745 5745 5746 5746 5746 5746 5746 5746 5746 5746 5746 5746 5745 5745 5745 5744 5743 5743 5743 5743 5744 5744 5744 5744 5745 5745 5745 5746 5746 5746 5746 5746 5746 5746 5746 5746 5746 5746 5746 5746 5746 5746 5745 5745 5745 5744 5744 5745 5745 5745 5745 5746 5746 5745 5744 5744 5744 5743 5742 5741 5740 5739
5725 5726 5728 5728 5729 5730 5730 5731 5732 5732 5733 5734 5735 5736 5737 5738 5739 5739 5740 5740 5741 5741 5741 5742 5742 5742 5743 5743 5743 5743 5743 5743 5743 5742 5742 5742 5742 5742 5741 5740 5740 5740 5740 5740 5740 5740 5741 5741 5741 5742 5742 5742 5742 5742 5742 5742 5742 5742 5742 5742 5741 5741 5741 5741 5741 5741 5741 5740 5740 5740 5740 5740 5740 5740 5740 5740 5739 5739 5739 5738 5738 5737 5737 5736 5734
5722 5723 5724 5726 5726 5727 5728 5728 5729 5730 5731 5732 5733 5733 5733 5734 5735 5735 5736 5736 5736 5737 5738 5738 5739 5739 5739 5740 5740 5740 5740 5740 5739 5738 5738 5738 5738 5739 5738 5737 5737 5737 5737 5736 5736 5736 5737 5737 5737 5738 5738 5738 5738 5738 5737 5737 5738 5737 5737 5737 5738 5737 5737 5737 5737 5737 5737 5737 5736 5735 5735 5735 5735 5735 5735 5735 5734 5734 5733 5732 5732 5732 5731 5730 5730
5718 5719 5720 5722 5723 5724 5725 5725 5725 5726 5726 5727 5728 5729 5729 5730 5730 5731 5731 5732 5732 5733 5734 5735 5735 5735 5736 5736 5736 5737 5737 5736 5735 5734 5733 5733 5734 5735 5734 5733 5733 5734 5733 5733 5732 5732 5733 5733 5733 5734 5734 5734 5734 5734 5733 5733 5733 5733 5733 5734 5734 5734 5733 5733 5733 5733 5733 5733 5732 5731 5731 5731 5731 5730 5730 5730 5730 5729 5728 5727 5726 5725 5724 5723 5723
5714 5715 5716 5717 5718 5719 5720 5721 5722 5722 5721 5721 5722 5724 5725 5726 5726 5727 5727 5728 5728 5729 5730 5731 5731 5731 5732 5732 5732 5732 5732 5732 5731 5730 5728 5728 5729 5729 5729 5729 5729 5729 5729 5729 5729 5728 5729 5729 5729 5729 5729 5729 5730 5730 5730 5729 5729 5729 5729 5729 5729 5730 5730 5729 5729 5729 5729 5729 5728 5728 5727 5726 5726 5725 5724 5724 5724 5724 5723 5722 5720 5719 5718 5717 5716
5710 5711 5712 5713 5714 5715 5716 5717 5718 5718 5718 5718 5718 5719 5720 5721 5722 5723 5724 5724 5724 5725 5725 5726 5726 5726 5727 5728 5729 5728 5727 5726 5726 5725 5723 5723 5724 5724 5723 5723 5724 5724 5724 5725 5724 5724 5725 5724 5724 5724 5724 5724 5725 5726 5726 5725 5725 5725 5725 5725 5725 5725 5725 5725 5725 5725 5724 5724 5724 5724 5723 5722 5722 5721 5720 5719 5719 5718 5717 5716 5715 5714 5713 5711 5710
5706 5707 5708 5708 5709 5710 5712 5713 5713 5714 5714 5714 5714 5715 5716 5717 5717 5718 5719 5720 5720 5720 5720 5720 5721 5721 5722 5723 5724 5724 5723 5722 5721 5720 5718 5718 5719 5719 5718 5718 5719 5719 5719 5719 5720 5720 5719 5718 5718 5719 5719 5719 5719 5720 5721 5720 5720 5720 5721 5720 5720 5720 5720 5720 5720 5720 5719 5719 5719 5719 5718 5718 5717 5716 5715 5714 5713 5713 5712 5710 5709 5708 5707 5706 5704
5703 5703 5703 5704 5704 5706 5707 5707 5708 5709 5709 5709 5709 5710 5711 5711 5712 5713 5714 5714 5714 5714 5715 5715 5715 5716 5717 5717 5718 5719 5718 5717 5716 5715 5714 5715 5715 5714 5713 5713 5713 5713 5714 5714 5714 5714 5713 5713 5712 5713 5713 5713 5713 5714 5715 5715 5714 5715 5715 5715 5715 5715 5715 5715 5715 5715 5714 5714 5713 5713 5712 5712 5711 5710 5710 5709 5708 5707 5706 5705 5703 5702 5700 5699 5697
5698 5698 5698 5698 5699 5700 5701 5702 5702 5703 5703 5703 5703 5704 5705 5705 5705 5707 5707 5708 5709 5709 5710 5710 5711 5711 5712 5713 5713 5713 5713 5713 5711 5709 5709 5709 5709 5709 5708 5708 5708 5708 5708 5709 5708 5707 5707 5707 5707 5707 5707 5707 5707 5708 5709 5709 5709 5710 5710 5710 5710 5709 5709 5709 5709 5709 5709 5708 5708 5707 5706 5706 5705 5705 5704 5703 5702 5701 5700 5699 5697 5696 5694 5692 5690
5692 5692 5692 5692 5693 5694 5695 5695 5696 5696 5696 5696 5697 5697 5698 5698 5699 5700 5701 5702 5703 5703 5703 5705 5706 5706 5707 5707 5707 5706 5707 5707 5705 5703 5702 5702 5703 5703 5703 5702 5702 5702 5702 5702 5702 5702 5702 5701 5702 5702 5701 5700 5701 5702 5703 5703 5704 5704 5704 5705 5705 5704 5704 5704 5703 5703 5703 5702 5702 5702 5701 5700 5700 5699 5698 5697 5696 5695 5694 5693 5691 5689 5687 5685 5683
5686 5687 5687 5687 5687 5688 5688 5688 5689 5689 5689 5690 5690 5691 5691 5692 5693 5694 5695 5696 5697 5696 5696 5696 5698 5700 5701 5701 5701 5699 5699 5699 5698 5697 5697 5697 5697 5697 5697 5697 5696 5695 5695 5695 5695 5696 5696 5695 5696 5696 5695 5695 5696 5696 5696 5697 5698 5698 5699 5699 5700 5699 5698 5698 5698 5698 5697 5697 5697 5696 5696 5696 5695 5694 5693 5691 5690 5689 5687 5685 5684 5682 5680 5678 5675
5679 5680 5680 5680 5681 5681 5681 5682 5682 5683 5683 5684 5684 5684 5685 5686 5686 5687 5688 5689 5690 5690 5689 5689 5690 5692 5693 5694 5693 5692 5691 5691 5690 5690 5690 5691 5691 5690 5690 5691 5690 5689 5688 5687 5688 5689 5689 5689 5690 5690 5688 5689 5690 5689 5690 5691 5691 5692 5692 5693 5694 5694 5693 5692 5692 5692 5692 5692 5692 5691 5691 5690 5689 5688 5687 5685 5684 5682 5680 5678 5676 5675 5674 5672 5669
5673 5674 5674 5674 5674 5674 5674 5675 5675 5676 5677 5677 5678 5678 5678 5679 5679 5680 5680 5681 5681 5682 5682 5682 5682 5683 5684 5685 5685 5684 5683 5683 5683 5683 5684 5684 5684 5683 5682 5683 5683 5682 5682 5682 5682 5684 5684 5684 5684 5683 5682 5683 5683 5683 5683 5684 5684 5686 5686 5686 5687 5688 5688 5688 5687 5687 5687 5687 5686 5686 5686 5685 5684 5683 5681 5679 5678 5677 5675 5672 5671 5669 5668 5666 5663
5667 5667 5667 5667 5667 5668 5668 5668 5669 5669 5670 5670 5671 5671 5671 5671 5671 5671 5672 5672 5673 5674 5674 5674 5674 5675 5676 5676 5677 5677 5676 5675 5675 5675 5676 5677 5677 5676 5676 5676 5676 5676 5677 5677 5677 5679 5680 5678 5677 5676 5676 5677 5677 5677 5677 5677 5678 5679 5680 5680 5681 5681 5682 5682 5682 5682 5682 5681 5681 5681 5680 5679 5678 5676 5674 5673 5671 5669 5667 5665 5664 5662 5660 5657 5655
5660 5660 5660 5660 5660 5661 5661 5661 5661 5661 5662 5662 5662 5663 5663 5662 5662 5662 5662 5663 5664 5665 5665 5666 5666 5666 5667 5667 5668 5669 5669 5669 5668 5667 5668 5668 5668 5668 5669 5670 5670 5670 5671 5670 5672 5675 5674 5671 5670 5670 5670 5670 5671 5671 5671 5671 5672 5673 5674 5674 5675 5675 5675 5676 5676 5676 5676 5676 5675 5675 5674 5673 5671 5669 5667 5666 5664 5661 5659 5658 5656 5654 5652 5649 5646
5652 5652 5652 5652 5652 5653 5652 5652 5652 5652 5652 5652 5653 5653 5653 5653 5654 5654 5653 5653 5654 5655 5655 5656 5657 5658 5658 5659 5659 5660 5662 5663 5661 5659 5660 5660 5659 5660 5661 5662 5664 5665 5664 5664 5666 5668 5666 5664 5664 5664 5664 5664 5664 5665 5665 5666 5666 5667 5668 5668 5668 5668 5668 5669 5670 5670 5670 5669 5669 5668 5666 5666 5664 5663 5661 5659 5657 5655 5653 5651 5649 5647 5645 5642 5638
5644 5644 5644 5644 5644 5644 5643 5643 5643 5643 5643 5643 5644 5644 5644 5643 5644 5644 5644 5643 5644 5644 5645 5646 5647 5647 5648 5650 5650 5651 5654 5656 5654 5651 5651 5652 5651 5651 5653 5654 5656 5658 5658 5658 5659 5659 5658 5658 5658 5658 5658 5658 5658 5659 5659 5660 5660 5662 5662 5662 5662 5661 5662 5663 5663 5663 5663 5663 5662 5661 5660 5659 5658 5657 5655 5653 5651 5649 5647 5645 5642 5639 5637 5635 5631
5636 5636 5636 5635 5635 5635 5635 5635 5634 5634 5635 5634 5634 5634 5634 5634 5634 5634 5634 5634 5633 5634 5634 5635 5636 5637 5638 5640 5641 5641 5643 5647 5647 5644 5643 5644 5644 5644 5645 5647 5648 5650 5651 5651 5652 5651 5650 5651 5652 5652 5652 5652 5652 5652 5653 5654 5655 5656 5656 5656 5656 5656 5656 5657 5657 5657 5657 5657 5656 5656 5655 5653 5652 5651 5649 5647 5645 5643 5641 5639 5636 5632 5629 5627 5624
5628 5628 5628 5627 5627 5626 5626 5625 5625 5625 5625 5625 5624 5623 5623 5623 5624 5624 5623 5623 5622 5623 5624 5624 5625 5626 5627 5628 5630 5631 5633 5636 5638 5637 5635 5636 5636 5636 5637 5639 5640 5642 5643 5644 5644 5644 5644 5645 5645 5645 5645 5646 5645 5646 5647 5649 5650 5650 5650 5650 5650 5651 5651 5651 5652 5652 5652 5651 5651 5650 5649 5648 5646 5645 5643 5641 5639 5637 5634 5632 5629 5625 5622 5620 5617
5620 5619 5619 5618 5617 5617 5616 5616 5615 5615 5614 5614 5614 5613 5613 5613 5613 5613 5613 5611 5611 5612 5613 5614 5614 5616 5617 5618 5620 5621 5622 5625 5629 5629 5628 5627 5627 5627 5629 5630 5631 5633 5635 5636 5637 5638 5639 5639 5639 5639 5640 5640 5641 5642 5643 5644 5644 5645 5645 5645 5645 5646 5646 5646 5647 5647 5646 5645 5645 5644 5643 5642 5640 5639 5637 5635 5632 5630 5628 5625 5622 5619 5616 5614 5611
5611 5610 5610 5609 5608 5607 5606 5606 5605 5605 5604 5604 5603 5603 5603 5602 5602 5602 5602 5601 5600 5601 5602 5603 5603 5605 5607 5609 5610 5611 5610 5613 5618 5620 5619 5619 5619 5619 5620 5622 5623 5625 5627 5628 5629 5631 5632 5632 5634 5634 5635 5635 5636 5637 5638 5638 5638 5638 5639 5639 5640 5640 5640 5641 5641 5641 5640 5640 5639 5638 5637 5636 5635 5633 5631 5629 5626 5624 5621 5618 5616 5613 5611 5608 5606
5602 5601 5600 5599 5598 5597 5597 5596 5595 5595 5594 5594 5593 5593 5592 5592 5591 5591 5592 5591 5590 5589 5590 5591 5592 5593 5595 5598 5600 5601 5600 5601 5606 5610 5611 5611 5611 5611 5612 5614 5615 5616 5618 5619 5621 5623 5624 5626 5627 5628 5628 5629 5629 5630 5631 5631 5631 5631 5632 5632 5634 5635 5635 5636 5636 5636 5635 5635 5634 5633 5632 5631 5629 5627 5625 5623 5620 5618 5615 5613 5611 5608 5606 5603 5601
5593 5592 5591 5590 5589 5588 5587 5586 5585 5585 5584 5583 5583 5583 5583 5582 5581 5581 5581 5581 5580 5578 5578 5580 5581 5581 5584 5587 5588 5590 5591 5592 5594 5598 5601 5602 5602 5603 5604 5606 5607 5609 5610 5611 5613 5615 5617 5618 5620 5621 5621 5621 5622 5623 5624 5624 5625 5626 5626 5626 5628 5629 5630 5630 5630 5630 5630 5629 5628 5628 5627 5625 5623 5621 5619 5618 5615 5613 5610 5608 5606 5603 5601 5599 5596
5585 5584 5582 5581 5580 5579 5578 5577 5576 5575 5574 5573 5573 5572 5572 5572 5572 5572 5570 5570 5570 5569 5569 5569 5569 5570 5573 5576 5578 5579 5582 5583 5585 5589 5592 5593 5594 5595 5596 5598 5600 5601 5602 5603 5605 5607 5609 5611 5612 5614 5615 5615 5616 5616 5617 5618 5619 5620 5621 5622 5623 5624 5624 5624 5624 5625 5624 5624 5623 5622 5621 5619 5617 5616 5615 5613 5611 5608 5606 5604 5602 5599 5597 5594 5591
5577 5576 5574 5573 5572 5571 5569 5568 5567 5566 5565 5564 5564 5563 5563 5563 5563 5563 5562 5560 5559 5560 5559 5559 5559 5559 5562 5566 5568 5570 5572 5574 5577 5581 5583 5584 5586 5587 5589 5591 5592 5593 5594 5596 5598 5600 5603 5604 5605 5607 5608 5609 5610 5610 5610 5611 5612 5613 5615 5617 5618 5620 5619 5618 5619 5619 5619 5618 5617 5616 5615 5614 5613 5612 5611 5609 5607 5604 5602 5600 5598 5596 5593 5590 5586
5569 5568 5566 5565 5564 5563 5562 5560 5560 5558 5557 5557 5556 5556 5555 5554 5554 5555 5554 5552 5550 5550 5550 5550 5549 5550 5552 5555 5558 5559 5561 5563 5567 5571 5573 5575 5578 5580 5582 5584 5585 5585 5587 5589 5592 5595 5596 5597 5598 5599 5600 5602 5603 5603 5604 5605 5606 5607 5609 5611 5613 5614 5614 5613 5613 5614 5613 5613 5612 5611 5611 5610 5609 5608 5606 5604 5603 5601 5599 5597 5595 5592 5589 5585 5582
5561 5561 5559 5558 5558 5557 5556 5555 5554 5553 5552 5552 5551 5550 5549 5548 5547 5547 5546 5545 5543 5542 5541 5541 5541 5541 5543 5546 5548 5550 5552 5554 5557 5560 5563 5566 5570 5573 5575 5577 5579 5580 5580 5582 5585 5588 5590 5591 5592 5592 5594 5596 5597 5597 5598 5600 5601 5602 5604 5605 5606 5608 5609 5608 5608 5609 5608 5608 5608 5607 5607 5606 5605 5604 5602 5601 5599 5597 5596 5594 5591 5588 5585 5581 5577
5556 5555 5554 5553 5553 5552 5551 5550 5550 5549 5548 5547 5546 5545 5543 5542 5540 5539 5538 5537 5536 5534 5533 5534 5534 5534 5536 5539 5541 5542 5543 5545 5548 5550 5553 5556 5560 5564 5568 5572 5575 5576 5576 5577 5579 5581 5583 5584 5585 5586 5589 5591 5591 5591 5592 5594 5596 5598 5600 5600 5601 5603 5604 5604 5604 5604 5604 5604 5604 5603 5603 5602 5601 5599 5598 5597 5595 5594 5593 5591 5588 5585 5582 5578 5574
5551 5551 5550 5549 5548 5548 5547 5546 5545 5545 5544 5542 5541 5539 5538 5536 5534 5532 5530 5528 5527 5526 5525 5526 5527 5527 5529 5532 5533 5534 5535 5537 5539 5541 5543 5546 5551 5555 5561 5567 5570 5570 5571 5572 5574 5575 5577 5577 5578 5580 5584 5586 5586 5586 5587 5589 5591 5593 5594 5595 5596 5597 5598 5599 5599 5599 5600 5600 5600 5599 5599 5598 5597 5596 5594 5593 5592 5591 5589 5587 5585 5582 5580 5576 5572
5548 5547 5546 5545 5545 5544 5543 5542 5542 5540 5539 5538 5536 5534 5532 5529 5526 5524 5521 5518 5517 5516 5516 5517 5518 5519 5522 5524 5525 5527 5528 5530 5532 5533 5535 5538 5542 5547 5553 5558 5562 5564 5566 5569 5569 5570 5571 5571 5572 5576 5579 5580 5581 5582 5583 5584 5587 5588 5589 5590 5592 5592 5593 5594 5595 5595 5595 5596 5595 5595 5595 5594 5593 5592 5591 5590 5589 5588 5586 5584 5582 5580 5578 5575 5571
5544 5543 5543 5542 5541 5541 5540 5539 5538 5537 5535 5533 5531 5528 5525 5522 5518 5514 5511 5509 5507 5507 5507 5508 5510 5512 5513 5514 5517 5519 5522 5524 5526 5527 5529 5531 5534 5538 5544 5549 5553 5557 5559 5561 5562 5564 5565 5566 5569 5572 5574 5575 5577 5579 5579 5580 5582 5584 5584 5586 5587 5588 5589 5590 5590 5591 5591 5592 5591 5591 5590 5589 5589 5588 5587 5587 5586 5585 5583 5582 5580 5578 5576 5573 5569
5541 5541 5540 5539 5539 5538 5537 5536 5535 5533 5531 5528 5525 5522 5518 5514 5509 5505 5502 5501 5500 5500 5500 5501 5503 5505 5506 5507 5510 5513 5516 5518 5520 5522 5524 5526 5529 5532 5536 5540 5545 5547 5549 5551 5555 5557 5560 5563 5566 5567 5568 5570 5573 5575 5575 5576 5578 5580 5581 5582 5583 5584 5585 5586 5586 5586 5587 5587 5587 5586 5586 5585 5585 5584 5584 5584 5583 5582 5580 5579 5577 5575 5573 5571 5568
5539 5538 5538 5537 5536 5535 5534 5533 5531 5529 5526 5523 5520 5515 5510 5505 5500 5498 5496 5495 5495 5495 5496 5497 5499 5501 5502 5504 5505 5508 5511 5513 5515 5517 5520 5522 5524 5526 5529 5534 5537 5539 5540 5544 5548 5551 5555 5559 5561 5562 5563 5566 5568 5570 5571 5572 5574 5575 5577 5578 5579 5580 5581 5581 5582 5582 5582 5582 5582 5582 5581 5581 5581 5581 5581 5580 5580 5579 5578 5576 5575 5573 5571 5569 5567
5537 5536 5535 5534 5533 5532 5531 5529 5528 5525 5523 5519 5514 5508 5502 5497 5494 5493 5492 5492 5492 5493 5494 5495 5497 5498 5500 5501 5502 5505 5508 5510 5511 5513 5515 5517 5519 5521 5523 5527 5531 5532 5535 5539 5543 5547 5551 5553 5554 5555 5559 5562 5564 5565 5566 5568 5569 5571 5572 5573 5574 5575 5576 5577 5577 5577 5577 5577 5577 5577 5577 5577 5577 5577 5578 5577 5577 5576 5575 5574 5572 5571 5569 5567 5565
5535 5534 5533 5532 5531 5530 5528 5527 5525 5522 5519 5515 5509 5503 5497 5494 5492 5491 5490 5490 5491 5492 5493 5494 5495 5496 5497 5498 5500 5503 5505 5507 5509 5510 5512 5513 5515 5517 5519 5522 5525 5528 5531 5535 5539 5542 5544 5545 5547 5551 5555 5557 5558 5560 5562 5563 5565 5567 5568 5569 5570 5571 5572 5572 5572 5573 5573 5573 5573 5573 5573 5573 5574 5574 5574 5574 5574 5573 5573 5571 5570 5568 5566 5565 5563
5533 5532 5531 5530 5528 5527 5526 5524 5522 5520 5516 5512 5506 5500 5495 5492 5490 5490 5489 5489 5490 5491 5492 5492 5493 5494 5495 5497 5499 5501 5503 5505 5507 5508 5509 5510 5512 5514 5517 5519 5522 5525 5529 5532 5533 5534 5536 5539 5545 5549 5551 5552 5554 5556 5558 5559 5561 5563 5564 5565 5566 5566 5567 5568 5568 5569 5569 5569 5569 5569 5569 5570 5570 5571 5571 5571 5571 5571 5570 5569 5567 5566 5564 5563 5561
5531 5530 5529 5528 5526 5525 5524 5522 5520 5518 5514 5509 5504 5499 5495 5492 5490 5490 5489 5489 5489 5490 5491 5491 5492 5493 5494 5496 5498 5500 5501 5503 5504 5505 5506 5507 5509 5511 5513 5516 5519 5523 5526 5527 5527 5529 5533 5538 5542 5544 5545 5547 5549 5551 5553 5555 5557 5559 5560 5561 5561 5562 5563 5564 5564 5565 5565 5565 5565 5565 5566 5566 5567 5568 5568 5568 5568 5568 5567 5566 5565 5564 5562 5561 5559
5530 5529 5527 5526 5524 5523 5522 5520 5518 5515 5512 5508 5504 5500 5496 5493 5491 5490 5490 5489 5489 5490 5490 5491 5491 5492 5493 5495 5496 5498 5499 5501 5502 5503 5504 5505 5506 5508 5511 5513 5516 5518 5520 5521 5524 5527 5532 5535 5537 5538 5540 5542 5544 5547 5549 5552 5553 5554 5555 5557 5558 5559 5560 5560 5560 5561 5561 5561 5561 5562 5562 5563 5564 5565 5565 5565 5565 5565 5565 5564 5563 5562 5560 5559 5557
5529 5528 5526 5525 5523 5521 5520 5518 5516 5514 5511 5508 5504 5500 5497 5494 5492 5490 5489 5489 5489 5489 5489 5490 5490 5492 5493 5494 5495 5497 5498 5499 5500 5501 5502 5504 5505 5507 5509 5511 5512 5514 5516 5520 5524 5527 5529 5530 5532 5534 5536 5538 5540 5543 5545 5547 5548 5550 5552 5553 5554 5555 5556 5556 5556 5556 5557 5557 5557 5558 5559 5559 5561 5561 5562 5562 5562 5562 5562 5562 5561 5560 5558 5557 5555
5528 5527 5525 5524 5522 5520 5518 5516 5514 5512 5510 5507 5504 5501 5499 5496 5493 5490 5488 5487 5487 5488 5488 5488 5490 5491 5492 5493 5495 5496 5497 5498 5499 5500 5502 5503 5504 5505 5507 5509 5511 5513 5516 5519 5522 5523 5525 5527 5529 5531 5533 5535 5537 5539 5541 5543 5544 5546 5548 5549 5550 5551 5551 5552 5552 5552 5553 5553 5554 5554 5555 5556 5557 5558 5559 5559 5559 5559 5559 5559 5558 5557 5556 5555 5553
5527 5526 5524 5523 5521 5519 5517 5515 5513 5511 5509 5507 5504 5502 5499 5496 5494 5490 5487 5486 5486 5487 5487 5487 5489 5490 5491 5493 5494 5495 5497 5498 5499 5500 5501 5502 5503 5505 5506 5509 5510 5512 5514 5516 5518 5520 5523 5525 5527 5528 5530 5532 5534 5535 5537 5539 5541 5543 5544 5545 5546 5546 5547 5547 5548 5548 5549 5550 5550 5551 5552 5553 5554 5555 5555 5556 5556 5556 5556 5556 5555 5555 5554 5553 5551
5526 5525 5523 5522 5520 5519 5517 5515 5513 5511 5509 5507 5505 5502 5500 5497 5495 5492 5489 5486 5486 5486 5487 5487 5488 5490 5491 5493 5495 5496 5497 5498 5500 5501 5502 5503 5504 5506 5507 5508 5510 5511 5512 5514 5516 5518 5521 5522 5524 5526 5527 5529 5530 5532 5534 5536 5537 5539 5540 5541 5541 5542 5542 5543 5544 5545 5546 5547 5547 5548 5549 5550 5550 5551 5552 5552 5553 5553 5553 5553 5553 5552 5551 5550 5549
5525 5524 5522 5521 5520 5518 5516 5515 5513 5511 5509 5507 5505 5503 5500 5498 5496 5493 5490 5488 5487 5487 5487 5488 5489 5490 5492 5494 5496 5497 5498 5499 5501 5502 5503 5504 5504 5506 5507 5508 5509 5510 5512 5513 5514 5516 5518 5519 5521 5523 5524 5526 5527 5529 5531 5532 5534 5535 5536 5536 5537 5537 5538 5539 5540 5541 5542 5543 5544 5545 5546 5546 5547 5548 5549 5549 5550 5550 5550 5550 5550 5549 5548 5548 5547